GW3823 Weather Reports


Display with metric or nautical units.
time (UTC)temp
F
wind
direction
speed
MPH
gust
MPH
rain 1hr
in
rain 24hr
in
rain mn
in
humidity
%
barometer
mb
20260510063806 41 47 9.0 10.0 0.00 0.00 0.00 52 1013.4
20260510063306 41 47 9.0 10.0 0.00 0.00 0.00 52 1013.0
20260510062807 41 47 9.0 10.0 0.00 0.00 0.00 52 1013.2
20260510062307 41 47 9.0 10.0 0.00 0.00 0.00 52 1012.9
20260510061806 41 47 9.0 10.0 0.00 0.00 0.00 39 1019.2
20260510061306 41 47 9.0 10.0 0.00 0.00 0.00 52 1013.0
20260510060807 41 47 9.0 10.0 0.00 0.00 0.00 39 1018.7
20260510054307 41 47 7.0 10.0 0.00 0.00 0.00 31 1019.4
20260510052307 55 60 7.0 9.0 0.00 0.00 0.00 47 1012.5
20260510051807 55 55 8.0 9.0 0.00 0.00 0.00 47 1012.2
20260510051306 55 55 8.0 9.0 0.00 0.00 0.00 47 1012.2
20260510050806 55 55 4.0 9.0 0.00 0.00 0.00 46 1012.2
20260510050306 55 59 2.0 2.0 0.00 0.00 0.00 44 1011.8
20260510045807 45 60 3.0 5.0 0.00 0.00 0.00 33 1019.6
20260510045307 47 96 2.0 5.0 0.00 0.00 0.00 41 1011.9
20260510044807 46 96 2.0 5.0 0.00 0.00 0.00 23 1011.9
20260510044307 45 96 2.0 10.0 0.00 0.00 0.00 41 1011.7
20260510043807 47 45 1.0 10.0 0.00 0.00 0.00 41 1011.8
20260510042806 46 61 14.0 14.0 0.00 0.00 0.00 43 1011.6
20260510041807 47 61 14.0 14.0 0.00 0.00 0.00 43 1011.5
20260510041306 46 61 14.0 14.0 0.00 0.00 0.00 43 1011.2
20260510040806 47 61 14.0 14.0 0.00 0.00 0.00 43 1019.4
20260510040307 54 67 6.0 6.0 0.00 0.00 0.00 20 1011.3
20260510035806 63 67 6.0 6.0 0.00 0.00 0.00 11 1011.8
20260510034806 54 67 6.0 6.0 0.00 0.00 0.00 36 1012.6
20260510034306 54 67 6.0 6.0 0.00 0.00 0.00 36 1011.9
20260510033806 53 67 6.0 6.0 0.00 0.00 0.00 23 1011.5
20260510033306 55 67 6.0 6.0 0.00 0.00 0.00 36 1012.8
20260510032807 54 67 6.0 6.0 0.00 0.00 0.00 14 1012.2
20260510032307 54 67 6.0 6.0 0.00 0.00 0.00 36 1011.6
20260510031806 53 67 6.0 6.0 0.00 0.00 0.00 24 1010.9
20260510030806 54 67 6.0 6.0 0.00 0.00 0.00 15 1011.7
20260510030306 53 67 6.0 6.0 0.00 0.00 0.00 36 1010.8
20260510025807 55 67 6.0 6.0 0.00 0.00 0.00 17 1012.0
20260510024806 65 1 2.0 6.0 0.00 0.00 0.00 10 1011.1
20260510024306 65 358 2.0 2.0 0.00 0.00 0.00 10 1010.4
20260510023807 65 358 2.0 2.0 0.00 0.00 0.00 10 1009.9
20260510023306 65 358 2.0 2.0 0.00 0.00 0.00 10 1011.5
20260510022806 65 358 2.0 2.0 0.00 0.00 0.00 10 1010.9
20260510021806 65 358 2.0 2.0 0.00 0.00 0.00 10 1009.6
20260510021306 65 358 2.0 2.0 0.00 0.00 0.00 10 1011.0
20260510020807 65 358 2.0 2.0 0.00 0.00 0.00 10 1010.5
20260510020306 60 358 2.0 2.0 0.00 0.00 0.00 19 1009.9
20260510015306 62 358 2.0 2.0 0.00 0.00 0.00 17 1010.6
20260510014806 61 358 2.0 2.0 0.00 0.00 0.00 18 1010.4
20260510013806 60 358 2.0 2.0 0.00 0.00 0.00 19 1009.2
20260510013306 62 358 2.0 2.0 0.00 0.00 0.00 17 1010.5
20260510012806 61 358 2.0 2.0 0.00 0.00 0.00 18 1010.0
20260510012307 61 358 2.0 2.0 0.00 0.00 0.00 19 1009.5
20260510011806 62 358 2.0 2.0 0.00 0.00 0.00 17 1010.9
20260510010806 61 358 2.0 3.0 0.00 0.00 0.00 18 1009.6
20260510010306 60 55 3.0 6.0 0.00 0.00 0.00 18 1009.0
20260510005806 70 174 6.0 6.0 0.00 0.00 0.00 11 1010.7
20260510004807 70 174 6.0 6.0 0.00 0.00 0.00 11 1009.4
20260510004306 70 174 6.0 6.0 0.00 0.00 0.00 11 1008.7
20260510003807 70 174 6.0 6.0 0.00 0.00 0.00 11 1010.4
20260510003306 64 174 6.0 6.0 0.00 0.00 0.00 13 1009.8
20260510002307 64 174 6.0 6.0 0.00 0.00 0.00 13 1008.7
20260510001807 65 174 6.0 6.0 0.00 0.00 0.00 12 1008.5
20260510001306 65 174 6.0 6.0 0.00 0.00 0.00 13 1009.7
20260510000806 64 174 6.0 6.0 0.00 0.00 0.00 13 1009.1
20260510000306 65 174 6.0 6.0 0.00 0.00 0.00 12 1010.4
20260509235806 65 174 6.0 6.0 0.00 0.00 0.00 13 1009.8
20260509235307 64 174 6.0 6.0 0.00 0.00 0.00 13 1009.3
20260509234806 64 174 6.0 6.0 0.00 0.00 0.00 13 1008.8
20260509234306 65 174 6.0 6.0 0.00 0.00 0.00 12 1009.9
20260509233806 64 174 6.0 8.0 0.00 0.00 0.00 13 1009.6
20260509232307 66 56 3.0 16.0 0.00 0.00 0.00 15 1008.5
20260509231806 64 229 13.0 16.0 0.00 0.00 0.00 16 1008.4
20260509231306 63 229 13.0 16.0 0.00 0.00 0.00 16 1008.6
20260509230805 65 229 13.0 16.0 0.00 0.00 0.00 15 1010.3
20260509225806 72 157 7.0 10.0 0.00 0.00 0.00 15 1008.7
20260509224306 71 174 7.0 22.0 0.00 0.00 0.00 16 1008.7
20260509223806 71 175 8.0 30.0 0.00 0.00 0.00 15 1013.9
20260509223306 71 166 13.0 30.0 0.00 0.00 0.00 16 1008.5
20260509222806 72 153 12.0 25.0 0.00 0.00 0.00 16 1008.6
20260509221306 72 165 16.0 21.0 0.00 0.00 0.00 17 1008.6
20260509220806 72 165 16.0 21.0 0.00 0.00 0.00 17 1009.6
20260509220306 72 165 16.0 21.0 0.00 0.00 0.00 17 1008.6
20260509215306 71 293 5.0 8.0 0.00 0.00 0.00 18 1008.5
20260509214806 71 210 3.0 22.0 0.00 0.00 0.00 18 1008.5
20260509214306 71 155 15.0 22.0 0.00 0.00 0.00 17 1008.7
20260509213806 71 155 13.0 22.0 0.00 0.00 0.00 17 1008.5
20260509213306 71 234 3.0 15.0 0.00 0.00 0.00 18 1008.6
20260509212806 71 188 6.0 17.0 0.00 0.00 0.00 19 1008.8
20260509212306 71 145 17.0 21.0 0.00 0.00 0.00 19 1016.6
20260509211806 71 175 13.0 17.0 0.00 0.00 0.00 20 1008.6
20260509211306 71 175 13.0 23.0 0.00 0.00 0.00 21 1013.0
20260509210806 71 183 13.0 23.0 0.00 0.00 0.00 20 1008.7
20260509210305 71 183 13.0 23.0 0.00 0.00 0.00 20 1013.1
20260509205806 70 183 13.0 23.0 0.00 0.00 0.00 22 1008.4
20260509205307 70 183 13.0 23.0 0.00 0.00 0.00 21 1008.9
20260509204806 64 183 13.0 23.0 0.00 0.00 0.00 22 1008.5
20260509204306 70 183 13.0 23.0 0.00 0.00 0.00 21 1008.6
20260509203305 70 188 12.0 21.0 0.00 0.00 0.00 23 1008.5
20260509202806 70 171 15.0 20.0 0.00 0.00 0.00 23 1008.7
20260509201806 70 176 9.0 28.0 0.00 0.00 0.00 22 1013.5
20260509201305 69 176 9.0 28.0 0.00 0.00 0.00 23 1008.5
20260509200806 70 176 9.0 28.0 0.00 0.00 0.00 23 1008.7
20260509195805 70 181 6.0 21.0 0.00 0.00 0.00 24 1008.9
20260509194805 70 157 13.0 30.0 0.00 0.00 0.00 25 1008.7
20260509194306 69 151 10.0 30.0 0.00 0.00 0.00 24 1016.0
20260509193805 69 157 7.0 17.0 0.00 0.00 0.00 24 1009.2
20260509193306 69 182 5.0 16.0 0.00 0.00 0.00 25 1014.1
20260509192806 63 170 9.0 18.0 0.00 0.00 0.00 26 1008.9
20260509192306 69 169 6.0 22.0 0.00 0.00 0.00 26 1009.0
20260509191806 70 157 9.0 25.0 0.00 0.00 0.00 27 1008.9
20260509191306 69 163 10.0 28.0 0.00 0.00 0.00 25 1009.1
20260509190806 70 191 7.0 23.0 0.00 0.00 0.00 26 1009.2
20260509190306 69 218 7.0 25.0 0.00 0.00 0.00 28 1009.2
20260509185806 62 157 7.0 25.0 0.00 0.00 0.00 27 1009.1
20260509184806 68 165 5.0 13.0 0.00 0.00 0.00 28 1009.2
20260509184306 68 188 6.0 12.0 0.00 0.00 0.00 29 1009.2
20260509183805 68 196 6.0 14.0 0.00 0.00 0.00 29 1017.8
20260509182307 67 162 7.0 21.0 0.00 0.00 0.00 22 1009.3
20260509181805 68 162 7.0 21.0 0.00 0.00 0.00 30 1009.5
20260509181306 67 196 9.0 13.0 0.00 0.00 0.00 21 1009.5
20260509180806 68 196 9.0 23.0 0.00 0.00 0.00 31 1013.6
20260509180306 68 214 8.0 23.0 0.00 0.00 0.00 22 1009.8
20260509175806 67 256 4.0 18.0 0.00 0.00 0.00 31 1009.7
20260509175307 66 166 7.0 30.0 0.00 0.00 0.00 30 1009.6
20260509174306 66 165 7.0 24.0 0.00 0.00 0.00 30 1009.6
20260509172806 66 139 2.0 14.0 0.00 0.00 0.00 33 1009.7
20260509172307 66 171 6.0 17.0 0.00 0.00 0.00 33 1009.9
20260509171806 66 179 5.0 24.0 0.00 0.00 0.00 33 1009.8
20260509171306 66 204 5.0 25.0 0.00 0.00 0.00 35 1009.7
20260509170805 66 199 7.0 20.0 0.00 0.00 0.00 33 1009.7
20260509170306 66 173 5.0 20.0 0.00 0.00 0.00 31 1018.1
20260509165307 57 152 13.0 25.0 0.00 0.00 0.00 33 1015.9
20260509164806 57 179 10.0 25.0 0.00 0.00 0.00 33 1009.9
20260509164305 58 267 4.0 16.0 0.00 0.00 0.00 32 1009.9
20260509163806 58 73 5.0 23.0 0.00 0.00 0.00 33 1010.1
20260509163306 58 154 13.0 23.0 0.00 0.00 0.00 32 1009.7
20260509162307 56 153 9.0 17.0 0.00 0.00 0.00 34 1010.0
20260509161806 57 161 3.0 18.0 0.00 0.00 0.00 34 1014.3
20260509161306 58 202 6.0 22.0 0.00 0.00 0.00 32 1009.9
20260509160805 57 176 5.0 22.0 0.00 0.00 0.00 33 1019.3
20260509160306 57 174 8.0 18.0 0.00 0.00 0.00 34 1009.9
20260509155806 56 147 10.0 21.0 0.00 0.00 0.00 36 1009.7
20260509155306 56 178 6.0 18.0 0.00 0.00 0.00 38 1009.8
20260509154806 55 154 5.0 22.0 0.00 0.00 0.00 38 1009.9
20260509154305 55 153 9.0 22.0 0.00 0.00 0.00 37 1009.9
20260509153806 55 183 5.0 22.0 0.00 0.00 0.00 37 1009.8
20260509153305 55 173 10.0 24.0 0.00 0.00 0.00 36 1009.9
20260509152806 55 160 9.0 24.0 0.00 0.00 0.00 37 1009.8
20260509152306 54 168 9.0 30.0 0.00 0.00 0.00 37 1016.3
20260509151805 54 185 5.0 26.0 0.00 0.00 0.00 37 1009.9
20260509151305 54 157 16.0 26.0 0.00 0.00 0.00 39 1016.0
20260509150806 54 162 10.0 16.0 0.00 0.00 0.00 39 1010.0
20260509150305 52 157 4.0 10.0 0.00 0.00 0.00 42 1016.2
20260509145806 50 169 3.0 5.0 0.00 0.00 0.00 49 1010.1
20260509145306 49 93 2.0 6.0 0.00 0.00 0.00 51 1018.1
20260509144806 47 147 3.0 5.0 0.00 0.00 0.00 53 1010.3
20260509144305 46 165 3.0 6.0 0.00 0.00 0.00 54 1019.7
20260509143806 45 139 5.0 6.0 0.00 0.00 0.00 55 1010.4
20260509143306 45 160 2.0 5.0 0.00 0.00 0.00 57 1010.4
20260509142805 45 148 2.0 6.0 0.00 0.00 0.00 57 1010.3
20260509142307 45 165 2.0 6.0 0.00 0.00 0.00 58 1010.5
20260509141306 44 18 2.0 5.0 0.00 0.00 0.00 58 1010.4
20260509135805 42 147 2.0 2.0 0.00 0.00 0.00 63 1010.5
20260509134305 41 199 0.0 5.0 0.00 0.00 0.00 63 1010.7
20260509133806 41 44 2.0 5.0 0.00 0.00 0.00 61 1010.7
20260509133306 40 54 4.0 8.0 0.00 0.00 0.00 61 1010.8
20260509132805 40 29 3.0 6.0 0.00 0.00 0.00 62 1015.5
20260509132306 40 46 5.0 8.0 0.00 0.00 0.00 63 1010.9
20260509131805 40 65 5.0 8.0 0.00 0.00 0.00 63 1019.7
20260509131306 40 49 5.0 8.0 0.00 0.00 0.00 63 1010.8
20260509130805 39 70 6.0 13.0 0.00 0.00 0.00 63 1015.8
20260509130305 39 71 7.0 13.0 0.00 0.00 0.00 65 1010.8
20260509125806 39 70 6.0 9.0 0.00 0.00 0.00 65 1018.4
20260509125308 39 69 6.0 12.0 0.00 0.00 0.00 67 1010.5
20260509124805 38 41 6.0 12.0 0.00 0.00 0.00 66 1015.2
20260509124305 39 43 4.0 8.0 0.00 0.00 0.00 67 1010.6
20260509123806 38 33 5.0 6.0 0.00 0.00 0.00 68 1018.6
20260509121806 38 65 5.0 9.0 0.00 0.00 0.00 67 1010.1
20260509121305 38 72 5.0 8.0 0.00 0.00 0.00 67 1010.1
20260509120805 39 71 4.0 8.0 0.00 0.00 0.00 67 1010.0
20260509120306 40 55 5.0 8.0 0.00 0.00 0.00 67 1010.0
20260509115806 39 62 6.0 12.0 0.00 0.00 0.00 65 1010.0
20260509114805 39 49 5.0 7.0 0.00 0.00 0.00 66 1010.0
20260509114305 40 61 3.0 9.0 0.00 0.00 0.00 66 1010.0
20260509113305 40 58 7.0 9.0 0.00 0.00 0.00 67 1014.0
20260509112805 40 44 6.0 8.0 0.00 0.00 0.00 64 1010.0
20260509112307 40 56 4.0 7.0 0.00 0.00 0.00 64 1015.3
20260509111306 41 55 3.0 9.0 0.00 0.00 0.00 65 1015.8
20260509110806 41 64 6.0 9.0 0.00 0.00 0.00 66 1010.1
20260509110306 40 40 6.0 8.0 0.00 0.00 0.00 66 1009.8
20260509105806 41 46 6.0 9.0 0.00 0.00 0.00 65 1009.8
20260509105306 41 46 5.0 13.0 0.00 0.00 0.00 63 1009.9
20260509104806 41 54 6.0 13.0 0.00 0.00 0.00 62 1009.7
20260509104305 41 62 7.0 9.0 0.00 0.00 0.00 63 1009.9
20260509103805 42 39 5.0 9.0 0.00 0.00 0.00 63 1018.0
20260509103305 42 55 5.0 10.0 0.00 0.00 0.00 62 1009.8
20260509102306 43 30 2.0 7.0 0.00 0.00 0.00 63 1009.8
20260509101805 42 49 5.0 7.0 0.00 0.00 0.00 62 1009.6
20260509101306 42 26 2.0 9.0 0.00 0.00 0.00 62 1009.8
20260509100305 42 44 3.0 5.0 0.00 0.00 0.00 61 1009.7
20260509095306 43 78 3.0 6.0 0.00 0.00 0.00 65 1009.9
20260509094805 43 54 3.0 5.0 0.00 0.00 0.00 63 1009.7
20260509094306 44 31 3.0 7.0 0.00 0.00 0.00 60 1009.6
20260509093805 44 66 4.0 7.0 0.00 0.00 0.00 59 1009.7
20260509093305 43 72 4.0 6.0 0.00 0.00 0.00 60 1009.4
20260509092805 43 61 1.0 5.0 0.00 0.00 0.00 63 1009.5
20260509092306 43 45 2.0 3.0 0.00 0.00 0.00 64 1009.7
20260509091806 44 325 0.0 1.0 0.00 0.00 0.00 64 1009.5
20260509091305 44 186 0.0 0.0 0.00 0.00 0.00 54 1014.3
20260509090805 44 124 0.0 0.0 0.00 0.00 0.00 63 1009.5
20260509090305 44 135 0.0 1.0 0.00 0.00 0.00 61 1014.7
20260509085805 44 69 0.0 1.0 0.00 0.00 0.00 50 1009.7
20260509085306 46 0 1.0 1.0 0.00 0.00 0.00 62 1009.4
20260509084805 44 349 1.0 1.0 0.00 0.00 0.00 52 1009.6
20260509084306 45 204 0.0 2.0 0.00 0.00 0.00 61 1009.5
20260509083806 45 23 1.0 2.0 0.00 0.00 0.00 54 1009.6
20260509083305 45 27 0.0 2.0 0.00 0.00 0.00 59 1009.6
20260509082805 45 348 1.0 5.0 0.00 0.00 0.00 58 1013.0
20260509082307 46 25 3.0 5.0 0.00 0.00 0.00 55 1009.5
20260509081305 46 71 2.0 6.0 0.00 0.00 0.00 56 1009.6
20260509075805 47 72 1.0 2.0 0.00 0.00 0.00 59 1009.5
20260509075306 46 38 1.0 2.0 0.00 0.00 0.00 58 1009.5
20260509074306 45 109 0.0 3.0 0.00 0.00 0.00 58 1009.7
20260509072306 46 81 1.0 5.0 0.00 0.00 0.00 57 1009.7
20260509071805 47 38 2.0 5.0 0.00 0.00 0.00 55 1009.7
20260509071305 47 59 4.0 6.0 0.00 0.00 0.00 51 1009.7
20260509070806 48 33 2.0 6.0 0.00 0.00 0.00 53 1009.8
20260509070305 48 55 5.0 7.0 0.00 0.00 0.00 52 1009.6
20260509065805 48 47 5.0 10.0 0.00 0.00 0.00 49 1009.7
20260509064305 48 54 4.0 7.0 0.00 0.00 0.00 48 1009.5